Find Starlink 31546

NORAD ID: 59470 Int'l Des: 2024-068 Owner: SPXS Country: US Constellation: starlink operational
LEOCIRCULAR

Live Position

Loading 3D Globe...

About Starlink 31546

Description loading...

Upcoming Passes

Passes for default location (London). Set your location on the main map for personalized predictions.

Altitude History

Loading altitude history...

Two-Line Element Set

1 59470U 24068R 26124.58940842 -.00000149 00000-0 41071-5 0 9993
2 59470 43.0045 75.2117 0000943 286.9346 73.1402 15.27581364117110
Epoch: May 4, 2026 • Age: 7 hours

Current Status

Altitude 485.0 km
Velocity 7.62 km/s
Sub-Earth Point -11.25°S, 83.82°E
Launch Date Apr 10, 2024
Age 2 years
Type internet

Technical Details

Classification Payload
Mass 730.00 kg
Dry Mass 700.00 kg
Total Mass 730.00 kg
Length 0.30 m
Diameter 4.10 m
Span 29.00 m
Shape Box + pan
Manufacturer SPXS
Bus Type Starlink V2M
Phase Status In Orbit
Owner/State SPXS/US

Most Searched